Location: El Corozo
(10.5833°N, 66.9667°W)
Time: 01:20:56
(UTC+00:00)

SL-12 R/B(2) - Pass Details

Date: 23 May 2024
Orbit: 1195 x 2154 km, 63.4° (Epoch: 12 June)

Event Time Altitude Azimuth Distance (km) Brightness Sun altitude
Exits shadow 08:37:21 31° 226° (SW) 1,981 4.6 -20.5°
Maximum altitude 08:41:04 62° 295° (WNW) 1,372 4.0 -19.7°
Drops below altitude 10° 08:49:01 10° 15° (NNE) 3,426 6.9 -17.9°
Sets 08:52:08 0° 19° (NNE) 4,517 7.7 -17.2°
